Flag for Austria Weather past 2 weeks in Murau, Styria, Austria

Now
72 °F

Broken clouds.


Feels Like: 76 °F
Forecast: 49 / 71 °F
Wind: 5 mph from South

Location: Zeltweg

Current Time: Jul 25, 2014 at 4:19:08 PM

Latest Report: Jul 25, 2014 at 3:50 PM


Visibility: 15 mi

Pressure: 29.98 "Hg

Humidity: 61%

Dew point: 57 °F

Location of MurauLocation

Historic Weather in Murau — Graph

°F

Murau temperature yesterday

Maximum temperature yesterday: 77 °F (at 1:50 PM)
Minimum temperature yesterday: 46 °F (at 5:50 AM)
Average temperature yesterday: 67 °F

Past Weeks' High & Low Weather Summary

 TemperatureHumidityPressure
High86 °F (Jul 20, 12:50 PM)100% (Jul 14, 4:50 AM)30.24 "Hg (Jul 14, 4:50 AM)
Low46 °F (Jul 24, 5:50 AM)32% (Jul 18, 6:50 PM)29.77 "Hg (Jul 10, 2:20 PM)
Average66 °F70%30.00 "Hg
* Reported Jul 10 2:20 PM — Jul 25 2:50 PM, Murau, Weather by CustomWeather, © 2014

Note: Actual official high and low records may vary slightly from our data, if they occured in-between our weather recording intervals... More about our weather records

Advertising

Murau weather history for previous 24 hours

 ConditionsComfort  
Time TempWeatherWind HumidityBarometerVisibility
2:50 PM
Jul 25
72 °FPartly sunny.2 mph57%30.01 "Hg12 mi
2:20 PM70 °FPartly sunny.3 mph69%30.01 "Hg12 mi
1:50 PM68 °FPartly sunny.1 mph69%30.01 "Hg12 mi
1:20 PM66 °FPartly sunny.2 mph73%30.01 "Hg12 mi
12:50 PM66 °FPartly sunny.1 mph73%30.01 "Hg12 mi
12:20 PM66 °FPartly sunny.3 mph73%30.01 "Hg12 mi
11:50 AM68 °FPartly sunny.1 mph73%30.01 "Hg12 mi
11:20 AM68 °FPartly sunny.1 mph69%30.01 "Hg9 mi
10:50 AM64 °FBroken clouds.1 mph78%30.01 "Hg9 mi
10:20 AM64 °FBroken clouds.2 mph83%30.01 "Hg6 mi
9:50 AM63 °FBroken clouds.2 mph88%30.01 "Hg6 mi
9:20 AM61 °FDrizzle. Broken clouds.5 mph94%30.01 "Hg6 mi
8:50 AM61 °FBroken clouds.2 mph94%30.01 "Hg5 mi
8:20 AM59 °FPartly sunny.2 mph100%30.01 "Hg5 mi
7:50 AM59 °FDrizzle. Broken clouds.3 mph94%30.01 "Hg5 mi
7:20 AM59 °FBroken clouds.2 mph94%30.01 "Hg6 mi
6:50 AM59 °FMore clouds than sun.3 mph100%30.01 "Hg6 mi
5:50 AM59 °FMostly cloudy.2 mph100%29.98 "Hg6 mi
4:50 AM59 °FLight rain. Mostly cloudy.2 mph100%29.98 "Hg6 mi
10:50 PM
Jul 24
61 °FSprinkles. Partly cloudy.2 mph88%29.98 "Hg9 mi
9:50 PM61 °FSprinkles. Passing clouds.5 mph94%29.95 "Hg6 mi
8:50 PM63 °FThunderstorms. Broken clouds.5 mph83%29.92 "Hg16 mi
7:50 PM63 °FSprinkles. Broken clouds.10 mph88%29.92 "Hg12 mi
6:50 PM75 °FThunderstorms. Broken clouds.7 mph44%29.89 "Hg22 mi
5:50 PM75 °FScattered clouds.5 mph41%29.86 "Hg25 mi
4:50 PM77 °FScattered clouds.3 mph34%29.86 "Hg25 mi
4:20 PM77 °FScattered clouds.6 mph36%29.86 "Hg25 mi
Weather by CustomWeather, © 2014

See weather overviewHow to use our weather pages